Flag for USA

Past Weather in Bryan – College Station, Texas, USA — Yesterday and Last 2 Weeks

Now
71 °F

Overcast.


Feels Like: 70 °F
Forecast: 75 / 66 °F
Wind: 9 mph from Southeast

Location: Easterwood Field

Current Time: Apr 23, 2019 at 11:18:09 pm

Latest Report: Apr 23, 2019 at 9:53 pm


Visibility: 10 mi

Pressure: 29.93 "Hg

Humidity: 84%

Dew Point: 66 °F

Location of Bryan – College StationLocation

Past Weather in Bryan – College Station — Graph

°F

Bryan – College Station Temperature Yesterday

Maximum temperature yesterday: 81 °F (at 2:53 pm)
Minimum temperature yesterday: 63 °F (at 2:53 am)
Average temperature yesterday: 70 °F

High & Low Weather Summary for the Past Weeks

 TemperatureHumidityPressure
High89 °F (Apr 10, 2:53 pm)100% (Apr 9, 7:53 am)30.14 "Hg (Apr 9, 7:53 am)
Low47 °F (Apr 14, 1:53 am)27% (Apr 11, 3:53 pm)29.49 "Hg (Apr 13, 11:53 am)
Average67 °F73%29.88 "Hg
* Reported Apr 8 9:53 pm — Apr 23 9:53 pm, Bryan – College Station. Weather by CustomWeather, © 2019

Note: Actual official high and low records may vary slightly from our data, if they occured in-between our weather recording intervals... More about our weather records

Advertising

Bryan – College Station Weather History for the Previous 24 Hours

Scroll right to see more
 ConditionsComfort  
Time TempWeatherWind HumidityBarometerVisibility
9:53 pm
Tue, Apr 23
71 °FOvercast.9 mph84%29.93 "Hg10 mi
8:53 pm71 °FClear.8 mph84%29.93 "Hg10 mi
7:53 pm73 °FOvercast.10 mph79%29.93 "Hg10 mi
6:53 pm74 °FPartly sunny.10 mph79%29.93 "Hg9 mi
5:53 pm76 °FScattered clouds.14 mph74%29.94 "Hg10 mi
4:53 pm76 °FCloudy.13 mph74%29.95 "Hg8 mi
3:53 pm77 °FScattered clouds.9 mph74%29.96 "Hg9 mi
2:53 pm76 °FScattered clouds.14 mph77%29.96 "Hg9 mi
1:53 pm76 °FBroken clouds.9 mph77%30.00 "Hg9 mi
1:00 pm76 °FBroken clouds.14 mph74%30.02 "Hg10 mi
11:53 am76 °FPartly sunny.14 mph77%30.01 "Hg10 mi
10:53 am73 °FMostly cloudy.14 mph84%30.02 "Hg10 mi
10:20 am72 °FMostly cloudy.7 mph87%30.04 "Hg9 mi
9:53 am71 °FOvercast.13 mph90%30.01 "Hg9 mi
8:53 am70 °FMostly cloudy.10 mph90%30.00 "Hg9 mi
8:36 am69 °FMostly cloudy.12 mph93%30.01 "Hg9 mi
7:53 am68 °FOvercast.10 mph93%29.99 "Hg10 mi
6:53 am67 °FMostly cloudy.10 mph97%29.99 "Hg10 mi
5:53 am67 °FOvercast.5 mph97%29.99 "Hg10 mi
4:53 am66 °FOvercast.6 mph96%29.98 "Hg10 mi
4:18 am66 °FMostly cloudy.7 mph96%30.00 "Hg10 mi
4:04 am66 °FOvercast.6 mph96%30.01 "Hg10 mi
3:53 am66 °FMostly cloudy.6 mph96%29.99 "Hg10 mi
2:53 am66 °FPassing clouds.8 mph93%29.99 "Hg10 mi
1:53 am66 °FClear.7 mph93%30.01 "Hg10 mi
12:53 am66 °FPassing clouds.6 mph90%30.04 "Hg10 mi
11:53 pm
Mon, Apr 22
68 °FPassing clouds.7 mph84%30.04 "Hg10 mi
Weather by CustomWeather, © 2019

See weather overview